TimeGMT,TemperatureF,Dew PointF,Humidity,Sea Level PressureIn,VisibilityMPH,Wind Direction,Wind SpeedMPH,Gust SpeedMPH,PrecipitationIn,Events,Conditions,WindDirDegrees,DateUTC
12:00 AM,47,46,96,30.40,1,East,6.7,,,,Mist,90,2013-01-06 00:00:00
12:00 AM,46.4,46.4,100,30.39,1.2,East,6.9,-,N/A,,Scattered Clouds,90,2013-01-06 00:00:00
12:30 AM,48.2,48.2,100,30.36,1.9,ESE,10.4,-,N/A,,Partly Cloudy,110,2013-01-06 00:30:00
1:00 AM,48.2,48.2,100,30.39,4.3,SE,12.7,-,N/A,,Mostly Cloudy,140,2013-01-06 01:00:00
1:30 AM,48.2,48.2,100,30.39,6.2,SE,11.5,-,N/A,,Mostly Cloudy,130,2013-01-06 01:30:00
2:00 AM,48.2,46.4,93,30.36,6.2,SE,9.2,-,N/A,,Mostly Cloudy,130,2013-01-06 02:00:00
2:30 AM,48.2,46.4,93,30.36,6.2,ESE,9.2,-,N/A,,Mostly Cloudy,110,2013-01-06 02:30:00
3:00 AM,50.0,48.2,94,30.33,6.2,ESE,10.4,-,N/A,,Mostly Cloudy,120,2013-01-06 03:00:00
3:30 AM,50.0,48.2,94,30.33,6.2,SE,12.7,-,N/A,,Mostly Cloudy,130,2013-01-06 03:30:00
4:00 AM,50.0,48.2,94,30.30,6.2,SE,16.1,-,N/A,,Mostly Cloudy,130,2013-01-06 04:00:00
4:30 AM,51.8,50.0,94,30.30,6.2,SE,15.0,-,N/A,,Mostly Cloudy,140,2013-01-06 04:30:00
5:00 AM,51.8,50.0,94,30.30,6.2,SE,16.1,-,N/A,Rain,Light Rain,140,2013-01-06 05:00:00
5:30 AM,51.8,50.0,94,30.27,6.2,SE,15.0,-,N/A,,Mostly Cloudy,140,2013-01-06 05:30:00
6:00 AM,51,49,91,30.28,11,SSE,15.7,,,Rain,Light Rain,150,2013-01-06 06:00:00
6:00 AM,51.8,50.0,94,30.27,6.2,SSE,16.1,-,N/A,,Mostly Cloudy,150,2013-01-06 06:00:00
6:30 AM,50.0,48.2,94,30.27,6.2,SSE,16.1,-,N/A,,Mostly Cloudy,150,2013-01-06 06:30:00
7:00 AM,50.0,46.4,87,30.27,6.2,SSE,12.7,-,N/A,,Overcast,150,2013-01-06 07:00:00
7:30 AM,50.0,46.4,87,30.27,6.2,SE,13.8,-,N/A,,Mostly Cloudy,140,2013-01-06 07:30:00
8:00 AM,50.0,46.4,87,30.27,6.2,SE,15.0,-,N/A,,Overcast,140,2013-01-06 08:00:00
8:30 AM,50.0,48.2,94,30.27,6.2,SE,15.0,-,N/A,,Mostly Cloudy,140,2013-01-06 08:30:00
9:00 AM,51.8,48.2,88,30.27,6.2,SSE,16.1,-,N/A,,Mostly Cloudy,150,2013-01-06 09:00:00
9:30 AM,51.8,50.0,94,30.27,6.2,SSE,19.6,-,N/A,,Overcast,160,2013-01-06 09:30:00
10:00 AM,51.8,50.0,94,30.24,6.2,SSE,17.3,-,N/A,,Mostly Cloudy,160,2013-01-06 10:00:00
10:30 AM,51.8,50.0,94,30.27,6.2,SSE,15.0,-,N/A,,Mostly Cloudy,160,2013-01-06 10:30:00
11:00 AM,51.8,50.0,94,30.24,6.2,SSE,17.3,-,N/A,,Mostly Cloudy,160,2013-01-06 11:00:00
11:30 AM,51.8,50.0,94,30.24,6.2,SSE,18.4,-,N/A,,Mostly Cloudy,160,2013-01-06 11:30:00
12:00 PM,53,49,84,30.26,12,South,17.9,,,,Partly Cloudy,170,2013-01-06 12:00:00
12:00 PM,53.6,50.0,88,30.24,6.2,South,17.3,-,N/A,,Mostly Cloudy,170,2013-01-06 12:00:00
12:30 PM,53.6,50.0,88,30.24,6.2,South,17.3,-,N/A,,Mostly Cloudy,170,2013-01-06 12:30:00
1:00 PM,53.6,50.0,88,30.24,6.2,SSE,17.3,-,N/A,,Mostly Cloudy,160,2013-01-06 13:00:00
1:30 PM,53.6,50.0,88,30.21,6.2,SSE,18.4,-,N/A,,Overcast,160,2013-01-06 13:30:00
2:00 PM,53.6,50.0,88,30.21,6.2,SSE,15.0,-,N/A,,Overcast,160,2013-01-06 14:00:00
2:30 PM,53.6,50.0,88,30.21,6.2,SSE,13.8,-,N/A,Rain,Light Rain,160,2013-01-06 14:30:00
3:00 PM,53.6,50.0,88,30.21,6.2,SE,11.5,-,N/A,,Overcast,140,2013-01-06 15:00:00
3:30 PM,51.8,50.0,94,30.21,6.2,SSE,13.8,-,N/A,,Mostly Cloudy,150,2013-01-06 15:30:00
4:00 PM,53.6,50.0,88,30.18,6.2,SSE,15.0,-,N/A,,Mostly Cloudy,160,2013-01-06 16:00:00
4:30 PM,51.8,50.0,94,30.18,6.2,SSE,11.5,-,N/A,,Mostly Cloudy,150,2013-01-06 16:30:00
5:00 PM,51.8,50.0,94,30.18,6.2,SSE,11.5,-,N/A,,Mostly Cloudy,150,2013-01-06 17:00:00
5:30 PM,51.8,50.0,94,30.18,6.2,SSE,15.0,-,N/A,,Mostly Cloudy,160,2013-01-06 17:30:00
6:00 PM,52,50,89,30.20,16,SSE,13.4,,,Rain,Light Rain,150,2013-01-06 18:00:00
6:00 PM,51.8,50.0,94,30.18,6.2,SSE,12.7,-,N/A,,Mostly Cloudy,150,2013-01-06 18:00:00
6:30 PM,51.8,50.0,94,30.18,6.2,SSE,15.0,-,N/A,Rain,Light Rain,150,2013-01-06 18:30:00
7:00 PM,51.8,50.0,94,30.18,6.2,SSE,11.5,-,N/A,,Mostly Cloudy,150,2013-01-06 19:00:00
7:30 PM,51.8,50.0,94,30.18,6.2,SSE,15.0,-,N/A,Rain,Light Rain,150,2013-01-06 19:30:00
8:00 PM,51.8,50.0,94,30.18,6.2,SSE,13.8,-,N/A,Rain,Light Rain,150,2013-01-06 20:00:00
8:30 PM,50.0,50.0,100,30.18,6.2,SE,12.7,-,N/A,Rain,Light Rain,140,2013-01-06 20:30:00
9:00 PM,50.0,50.0,100,30.18,6.2,SE,10.4,-,N/A,Rain,Light Rain,130,2013-01-06 21:00:00
9:30 PM,50.0,50.0,100,30.18,6.2,SE,12.7,-,N/A,Rain,Light Rain,140,2013-01-06 21:30:00
10:00 PM,50.0,50.0,100,30.15,6.2,ESE,12.7,-,N/A,Rain,Light Rain,120,2013-01-06 22:00:00
10:30 PM,50.0,50.0,100,30.15,6.2,ESE,12.7,-,N/A,Rain,Light Rain,120,2013-01-06 22:30:00
11:00 PM,50.0,50.0,100,30.15,6.2,SE,13.8,-,N/A,Rain,Light Rain,130,2013-01-06 23:00:00
11:30 PM,50.0,50.0,100,30.15,6.2,SE,12.7,-,N/A,Rain,Light Rain,140,2013-01-06 23:30:00